Weather History for KMJQ - February, 2013

Change the Weather History Date:

Friday, February 22, 2013

  Actual Average Record
Temperature  
Mean Temperature 20 °F -  
Max Temperature 23 °F 30 °F 53 °F (2000)
Min Temperature 17 °F 16 °F -5 °F (2015)
Degree Days  
Heating Degree Days 45    
Moisture  
Dew Point 16 °F    
Average Humidity 82    
Maximum Humidity 93    
Minimum Humidity 74    
Precipitation  
Precipitation 0.00 in - - ()
Sea Level Pressure  
Sea Level Pressure 29.88 in    
Wind  
Wind Speed 12 mph (NNW)    
Max Wind Speed 16 mph    
Max Gust Speed 21 mph    
Visibility 6 miles    
Events Snow    
Averages and records for this station are not official NWS values.
T = Trace of Precipitation, MM = Missing Value Source: NWS Daily Summary

Daily Weather History Graph

Daily Weather History Graph

Search for Another Location

Airport or City:

Trip Planner

Search our weather history database for the weather conditions in past years. The results will help you decide how hot, cold, wet, or windy it might be!

Date:

Astronomy

Feb. 22, 2013 Rise Set
Actual Time 7:07 AM CST 5:59 PM CST
Civil Twilight 6:38 AM CST 6:29 PM CST
Nautical Twilight 6:05 AM CST 7:02 PM CST
Astronomical Twilight 5:31 AM CST 7:35 PM CST
Moon 3:08 PM CST (2/22) 4:57 AM CST (2/22)
Length of Visible Light 11h 50m
Length of Day
10h 52m
Waxing Gibbous, 90% of the Moon is Illuminated
Feb 22
Waxing Gibbous
Feb 25
Full
Mar 4
Last Quarter
Mar 11
New
Mar 19
First Quarter

Hourly Weather History & Observations

Time (CST) Temp. Windchill Dew Point Humidity Pressure Visibility Wind Dir Wind Speed Gust Speed Precip Events Conditions
12:12 AM 17.6 °F 4.3 °F 14.0 °F 86% 29.95 in 2.0 mi NE 12.7 mph - N/A Snow Light Snow
12:33 AM 17.6 °F 3.7 °F 14.0 °F 86% 29.94 in 1.5 mi NE 13.8 mph - N/A Snow Light Snow
12:52 AM 17.6 °F 3.7 °F 14.0 °F 86% 29.93 in 1.2 mi NE 13.8 mph - N/A Snow Light Snow
1:13 AM 19.4 °F 6.6 °F 14.0 °F 80% 29.93 in 1.2 mi NE 12.7 mph - N/A Snow Light Snow
1:33 AM 19.4 °F 6.6 °F 14.0 °F 80% 29.92 in 1.5 mi NNE 12.7 mph - N/A Snow Light Snow
1:52 AM 19.4 °F 6.6 °F 14.0 °F 80% 29.92 in 1.0 mi NE 12.7 mph - N/A Snow Light Snow
2:13 AM 19.4 °F 6.0 °F 14.0 °F 80% 29.91 in 1.8 mi NE 13.8 mph - N/A Snow Light Snow
2:33 AM 19.4 °F 6.6 °F 14.0 °F 80% 29.91 in 0.8 mi NNE 12.7 mph - N/A Snow Snow
2:52 AM 19.4 °F 6.6 °F 14.0 °F 80% 29.89 in 1.2 mi NNE 12.7 mph - N/A Snow Light Snow
3:13 AM 19.4 °F 6.6 °F 14.0 °F 80% 29.88 in 1.5 mi North 12.7 mph - N/A Snow Light Snow
3:33 AM 17.6 °F 3.2 °F 14.0 °F 86% 29.87 in 3.0 mi North 15.0 mph - N/A Snow Light Snow
3:52 AM 17.6 °F 3.7 °F 14.0 °F 86% 29.87 in 4.0 mi NNE 13.8 mph - N/A Snow Light Snow
4:13 AM 19.4 °F 6.0 °F 14.0 °F 80% 29.86 in 2.0 mi NNE 13.8 mph - N/A Snow Light Snow
4:33 AM 19.4 °F 6.6 °F 14.0 °F 80% 29.86 in 1.8 mi NNE 12.7 mph - N/A Snow Light Snow
4:52 AM 19.4 °F 5.5 °F 14.0 °F 80% 29.87 in 2.0 mi NNE 15.0 mph - N/A Snow Light Snow
5:13 AM 19.4 °F 5.5 °F 15.8 °F 86% 29.87 in 3.0 mi NNE 15.0 mph - N/A Snow Light Snow
5:33 AM 19.4 °F 6.0 °F 15.8 °F 86% 29.87 in 5.0 mi North 13.8 mph - N/A Snow Light Snow
5:52 AM 19.4 °F 6.6 °F 15.8 °F 86% 29.86 in 5.0 mi North 12.7 mph - N/A Snow Light Snow
6:13 AM 19.4 °F 6.0 °F 15.8 °F 86% 29.86 in 5.0 mi North 13.8 mph - N/A Snow Light Snow
6:32 AM 19.4 °F 5.5 °F 15.8 °F 86% 29.86 in 7.0 mi North 15.0 mph - N/A Snow Light Snow
6:52 AM 19.4 °F 6.6 °F 15.8 °F 86% 29.86 in 7.0 mi NNE 12.7 mph - N/A Snow Light Snow
7:13 AM 19.4 °F 7.9 °F 17.6 °F 93% 29.86 in 5.0 mi North 10.4 mph - N/A Snow Light Snow
7:33 AM 19.4 °F 10.4 °F 15.8 °F 86% 29.86 in 4.0 mi North 6.9 mph - N/A Snow Light Snow
7:52 AM 19.4 °F 9.5 °F 15.8 °F 86% 29.86 in 1.5 mi North 8.1 mph - N/A Snow Light Snow
8:13 AM 19.4 °F 7.9 °F 15.8 °F 86% 29.86 in 3.0 mi North 10.4 mph - N/A Snow Light Snow
8:33 AM 19.4 °F 8.6 °F 15.8 °F 86% 29.86 in 7.0 mi North 9.2 mph - N/A Snow Light Snow
8:52 AM 21.2 °F 10.1 °F 17.6 °F 86% 29.86 in 2.5 mi North 10.4 mph - N/A Snow Light Snow
9:13 AM 21.2 °F 11.7 °F 17.6 °F 86% 29.86 in 3.0 mi North 8.1 mph - N/A Snow Light Snow
9:33 AM 21.2 °F 11.7 °F 17.6 °F 86% 29.86 in 3.0 mi North 8.1 mph - N/A Snow Light Snow
9:52 AM 21.2 °F 11.7 °F 17.6 °F 86% 29.87 in 5.0 mi North 8.1 mph - N/A Snow Light Snow
10:13 AM 21.2 °F 10.9 °F 17.6 °F 86% 29.87 in 4.0 mi North 9.2 mph - N/A Snow Light Snow
10:33 AM 21.2 °F 10.9 °F 17.6 °F 86% 29.87 in 7.0 mi North 9.2 mph - N/A Snow Light Snow
10:52 AM 23.0 °F 13.9 °F 17.6 °F 80% 29.88 in 5.0 mi North 8.1 mph - N/A Snow Light Snow
11:13 AM 23.0 °F 13.1 °F 17.6 °F 80% 29.87 in 4.0 mi North 9.2 mph - N/A Snow Light Snow
11:33 AM 23.0 °F 12.4 °F 17.6 °F 80% 29.86 in 5.0 mi North 10.4 mph - N/A Snow Light Snow
11:52 AM 23.0 °F 13.9 °F 17.6 °F 80% 29.86 in 7.0 mi North 8.1 mph - N/A Snow Light Snow
12:13 PM 23.0 °F 14.7 °F 17.6 °F 80% 29.86 in 10.0 mi North 6.9 mph - N/A Snow Light Snow
12:33 PM 23.0 °F 14.7 °F 17.6 °F 80% 29.87 in 10.0 mi North 6.9 mph - N/A   Overcast
12:52 PM 23.0 °F 12.4 °F 17.6 °F 80% 29.87 in 10.0 mi NNW 10.4 mph - N/A   Overcast
1:13 PM 23.0 °F 12.4 °F 17.6 °F 80% 29.87 in 10.0 mi NNW 10.4 mph - N/A   Overcast
1:33 PM 23.0 °F 9.6 °F 17.6 °F 80% 29.87 in 10.0 mi WNW 16.1 mph - N/A   Overcast
1:52 PM 23.0 °F 11.7 °F 17.6 °F 80% 29.88 in 10.0 mi NW 11.5 mph - N/A   Overcast
2:13 PM 23.0 °F 10.6 °F 17.6 °F 80% 29.88 in 3.0 mi NW 13.8 mph - N/A Snow Light Snow
2:32 PM 23.0 °F 11.1 °F 17.6 °F 80% 29.88 in 1.8 mi NW 12.7 mph 18.4 mph N/A Snow Light Snow
2:53 PM 23.0 °F 10.6 °F 19.4 °F 86% 29.88 in 1.8 mi NW 13.8 mph - N/A Snow Light Snow
3:13 PM 23.0 °F 12.4 °F 17.6 °F 80% 29.88 in 3.0 mi NW 10.4 mph - N/A Snow Light Snow
3:32 PM 23.0 °F 10.6 °F 17.6 °F 80% 29.88 in 5.0 mi WNW 13.8 mph 18.4 mph N/A Snow Light Snow
3:53 PM 23.0 °F 9.6 °F 17.6 °F 80% 29.88 in 7.0 mi NW 16.1 mph 20.7 mph N/A Snow Light Snow
4:13 PM 23.0 °F 11.7 °F 15.8 °F 74% 29.89 in 10.0 mi WNW 11.5 mph - N/A   Overcast
4:33 PM 23.0 °F 10.6 °F 15.8 °F 74% 29.89 in 10.0 mi NW 13.8 mph 19.6 mph N/A   Overcast
4:53 PM 23.0 °F 11.1 °F 15.8 °F 74% 29.89 in 10.0 mi NW 12.7 mph - N/A   Overcast
5:12 PM 21.2 °F 9.5 °F 15.8 °F 80% 29.89 in 10.0 mi NW 11.5 mph - N/A Snow Light Snow
5:33 PM 21.2 °F 10.1 °F 15.8 °F 80% 29.90 in 7.0 mi NW 10.4 mph - N/A Snow Light Snow
5:53 PM 19.4 °F 7.2 °F 15.8 °F 86% 29.89 in 7.0 mi NW 11.5 mph - N/A Snow Light Snow
6:12 PM 19.4 °F 8.6 °F 15.8 °F 86% 29.90 in 10.0 mi NW 9.2 mph - N/A Snow Light Snow
6:33 PM 21.2 °F 11.7 °F 15.8 °F 80% 29.90 in 10.0 mi NW 8.1 mph - N/A Snow Light Snow
6:53 PM 19.4 °F 8.6 °F 15.8 °F 86% 29.90 in 10.0 mi WNW 9.2 mph - N/A Snow Light Snow
7:12 PM 19.4 °F 10.4 °F 14.0 °F 80% 29.90 in 10.0 mi West 6.9 mph - N/A   Overcast
7:33 PM 17.6 °F 9.3 °F 14.0 °F 86% 29.90 in 7.0 mi West 5.8 mph - N/A Snow Light Snow
7:53 PM 17.6 °F 9.3 °F 12.2 °F 79% 29.91 in 7.0 mi WNW 5.8 mph - N/A Snow Light Snow
8:12 PM 17.6 °F 8.2 °F 12.2 °F 79% 29.91 in 10.0 mi West 6.9 mph - N/A Snow Light Snow
8:33 PM 17.6 °F 8.2 °F 14.0 °F 86% 29.90 in 10.0 mi West 6.9 mph - N/A   Overcast
8:52 PM 17.6 °F 6.4 °F 14.0 °F 86% 29.90 in 10.0 mi WNW 9.2 mph - N/A   Overcast
9:13 PM 17.6 °F 6.4 °F 14.0 °F 86% 29.89 in 10.0 mi NW 9.2 mph - N/A   Overcast
9:33 PM 19.4 °F 9.5 °F 14.0 °F 80% 29.89 in 10.0 mi NW 8.1 mph - N/A   Overcast
9:52 PM 19.4 °F 9.5 °F 14.0 °F 80% 29.89 in 10.0 mi NW 8.1 mph - N/A   Overcast
10:13 PM 19.4 °F 9.5 °F 14.0 °F 80% 29.89 in 10.0 mi WNW 8.1 mph - N/A Snow Light Snow
10:33 PM 19.4 °F 9.5 °F 14.0 °F 80% 29.89 in 10.0 mi West 8.1 mph - N/A Snow Light Snow
10:52 PM 19.4 °F 8.6 °F 14.0 °F 80% 29.89 in 10.0 mi West 9.2 mph - N/A Snow Light Snow
11:13 PM 19.4 °F 10.4 °F 14.0 °F 80% 29.89 in 10.0 mi West 6.9 mph - N/A   Overcast
11:32 PM 19.4 °F 9.5 °F 14.0 °F 80% 29.90 in 10.0 mi West 8.1 mph - N/A   Overcast
11:53 PM 19.4 °F 9.5 °F 14.0 °F 80% 29.89 in 7.0 mi WNW 8.1 mph - N/A Snow Light Snow